Location: Praha
(50.0830°N, 14.4670°E)
Time: 17:42:27
(UTC+02:00)

ISS - Pass Details

Date: 26 May 2020
Orbit: 417 x 420 km, 51.6° (Epoch: 26 May)

Event Time Altitude Azimuth Distance (km) Brightness Sun altitude
Rises 21:31:52 0° 280° (W) 2,365 1.2 -5.2°
Reaches altitude 10° 21:33:58 10° 283° (WNW) 1,501 0.1 -5.4°
Maximum altitude 21:37:20 70° 8° (N) 451 -3.5 -5.8°
Drops below altitude 10° 21:40:42 10° 92° (E) 1,501 -1.4 -6.2°
Enters shadow 21:42:11 - 95° (E) 2,108 -0.7 -6.4°
